BAW391 EBBR-EGLL

Flight info

Callsign BAW391
Flight time N/A
Altitude 24000
Route HELEN L179 COA L608 LOGAN
Aircraft A320/M-SDE3FGHIRWY/LB1

Departure

Time N/A
Airport Brussels Airport (EBBR)

Arrival

Time 2026-05-03 20:50
Airport London Heathrow Airport (EGLL)
Time Latitude Longitude Altitude Speed Heading
2026-05-03 20:15 51.11867 3.86021 14797 ft 358 kts 298°
2026-05-03 20:15 51.13181 3.82643 15401 ft 360 kts 298°
2026-05-03 20:15 51.14500 3.79240 15987 ft 363 kts 298°
2026-05-03 20:15 51.15830 3.75800 16581 ft 366 kts 298°
2026-05-03 20:16 51.17168 3.72337 17173 ft 369 kts 298°
2026-05-03 20:16 51.18516 3.68842 17768 ft 372 kts 298°
2026-05-03 20:16 51.19873 3.65320 18353 ft 375 kts 298°
2026-05-03 20:16 51.21242 3.61761 18898 ft 378 kts 298°
2026-05-03 20:17 51.22618 3.58175 19460 ft 380 kts 297°
2026-05-03 20:17 51.23990 3.54601 20022 ft 383 kts 297°
2026-05-03 20:17 51.25385 3.50961 20570 ft 386 kts 297°
2026-05-03 20:17 51.26792 3.47282 21117 ft 389 kts 297°
2026-05-03 20:18 51.28202 3.43584 21642 ft 391 kts 297°
2026-05-03 20:18 51.29623 3.39860 22163 ft 394 kts 296°
2026-05-03 20:18 51.31053 3.36111 22677 ft 396 kts 296°
2026-05-03 20:18 51.32491 3.32337 23187 ft 399 kts 296°
2026-05-03 20:19 51.33939 3.28533 23635 ft 402 kts 296°
2026-05-03 20:19 51.35394 3.24697 23869 ft 404 kts 296°
2026-05-03 20:19 51.36851 3.20843 23925 ft 406 kts 296°
2026-05-03 20:19 51.38302 3.17003 23930 ft 407 kts 296°
2026-05-03 20:20 51.39770 3.13124 23928 ft 407 kts 296°
2026-05-03 20:20 51.41059 3.09138 23929 ft 402 kts 287°
2026-05-03 20:20 51.42053 3.04954 23928 ft 400 kts 285°
2026-05-03 20:20 51.43031 3.00780 23926 ft 400 kts 285°
2026-05-03 20:21 51.44010 2.96602 23925 ft 400 kts 285°
2026-05-03 20:21 51.44987 2.92430 23925 ft 400 kts 285°
2026-05-03 20:21 51.45964 2.88239 23925 ft 400 kts 285°
2026-05-03 20:21 51.46937 2.84059 23935 ft 401 kts 286°
2026-05-03 20:22 51.47813 2.80289 23936 ft 401 kts 286°
2026-05-03 20:22 51.48562 2.77065 23933 ft 401 kts 286°
2026-05-03 20:22 51.49251 2.74101 23932 ft 401 kts 286°
2026-05-03 20:22 51.50227 2.69904 23927 ft 401 kts 286°
2026-05-03 20:23 51.51200 2.65703 23921 ft 401 kts 285°
2026-05-03 20:23 51.52122 2.61712 23924 ft 401 kts 285°
2026-05-03 20:23 51.53078 2.57564 23922 ft 401 kts 285°
2026-05-03 20:23 51.54045 2.53355 23922 ft 401 kts 285°
2026-05-03 20:24 51.55022 2.49083 23928 ft 401 kts 286°
2026-05-03 20:24 51.55970 2.44927 23926 ft 402 kts 286°
2026-05-03 20:24 51.56928 2.40720 23943 ft 402 kts 286°
2026-05-03 20:24 51.57888 2.36501 23934 ft 402 kts 286°
2026-05-03 20:25 51.58853 2.32268 23925 ft 403 kts 287°
2026-05-03 20:25 51.59817 2.28040 23922 ft 403 kts 287°
2026-05-03 20:25 51.60785 2.23795 23918 ft 403 kts 286°
2026-05-03 20:25 51.61748 2.19560 23920 ft 403 kts 286°
2026-05-03 20:26 51.62711 2.15310 23919 ft 404 kts 286°
2026-05-03 20:26 51.63672 2.11062 23917 ft 404 kts 286°
2026-05-03 20:26 51.64628 2.06817 23919 ft 404 kts 286°
2026-05-03 20:26 51.65579 2.02576 23920 ft 404 kts 286°
2026-05-03 20:27 51.66530 1.98323 23914 ft 404 kts 286°
2026-05-03 20:27 51.67481 1.94064 23915 ft 404 kts 286°
2026-05-03 20:27 51.68432 1.89806 23924 ft 404 kts 286°
2026-05-03 20:27 51.69383 1.85542 23921 ft 404 kts 286°
2026-05-03 20:28 51.70331 1.81276 23916 ft 404 kts 286°
2026-05-03 20:28 51.71275 1.77006 23916 ft 404 kts 286°
2026-05-03 20:28 51.72215 1.72732 23916 ft 405 kts 286°
2026-05-03 20:28 51.73160 1.68446 23916 ft 405 kts 286°
2026-05-03 20:29 51.74042 1.64146 23881 ft 401 kts 281°
2026-05-03 20:29 51.74492 1.59782 23435 ft 391 kts 270°
2026-05-03 20:29 51.74415 1.55432 22928 ft 384 kts 261°
2026-05-03 20:29 51.74123 1.51187 22485 ft 379 kts 261°
2026-05-03 20:30 51.73847 1.47039 22043 ft 375 kts 262°
2026-05-03 20:30 51.73572 1.42806 21600 ft 372 kts 262°
2026-05-03 20:30 51.73311 1.38727 21147 ft 369 kts 262°
2026-05-03 20:30 51.73049 1.34618 20697 ft 366 kts 262°
2026-05-03 20:31 51.72784 1.30539 20235 ft 364 kts 262°
2026-05-03 20:31 51.72519 1.26506 19778 ft 361 kts 262°
2026-05-03 20:31 51.72253 1.22492 19300 ft 359 kts 262°
2026-05-03 20:31 51.71989 1.18501 18830 ft 357 kts 262°
2026-05-03 20:32 51.71723 1.14536 18347 ft 355 kts 262°
2026-05-03 20:32 51.71456 1.10584 17828 ft 353 kts 262°
2026-05-03 20:32 51.71189 1.06675 17350 ft 349 kts 262°
2026-05-03 20:32 51.70922 1.02799 16867 ft 346 kts 262°
2026-05-03 20:33 51.70657 0.98958 16383 ft 343 kts 262°
2026-05-03 20:33 51.70396 0.95146 15925 ft 340 kts 262°
2026-05-03 20:33 51.70135 0.91361 15477 ft 338 kts 262°
2026-05-03 20:33 51.69879 0.87649 15645 ft 335 kts 262°
2026-05-03 20:34 51.69614 0.83873 15851 ft 341 kts 262°
2026-05-03 20:34 51.69349 0.80112 15912 ft 342 kts 262°
2026-05-03 20:34 51.69078 0.76305 15918 ft 343 kts 262°
2026-05-03 20:34 51.68805 0.72484 15919 ft 343 kts 262°
2026-05-03 20:35 51.68534 0.68669 15919 ft 343 kts 262°
2026-05-03 20:35 51.68264 0.64857 15919 ft 343 kts 262°
2026-05-03 20:35 51.67992 0.61037 15917 ft 339 kts 262°
2026-05-03 20:35 51.67729 0.57354 15848 ft 325 kts 261°
2026-05-03 20:36 51.67474 0.53825 15551 ft 310 kts 261°
2026-05-03 20:36 51.67226 0.50406 14978 ft 305 kts 261°
2026-05-03 20:36 51.66981 0.47035 14373 ft 302 kts 261°
2026-05-03 20:36 51.66738 0.43697 13765 ft 299 kts 261°
2026-05-03 20:37 51.66496 0.40377 13099 ft 297 kts 261°
2026-05-03 20:37 51.66255 0.37090 12439 ft 294 kts 261°
2026-05-03 20:37 51.66011 0.33815 11790 ft 292 kts 261°
2026-05-03 20:37 51.65769 0.30584 11176 ft 290 kts 261°
2026-05-03 20:38 51.65527 0.27370 10556 ft 288 kts 262°
2026-05-03 20:38 51.65285 0.24175 9962 ft 286 kts 262°
2026-05-03 20:38 51.65052 0.21077 9749 ft 270 kts 262°
2026-05-03 20:38 51.64843 0.18155 9325 ft 262 kts 264°
2026-05-03 20:39 51.64739 0.15220 8824 ft 259 kts 266°
2026-05-03 20:39 51.64664 0.12390 8597 ft 250 kts 266°
2026-05-03 20:39 51.64593 0.09613 8365 ft 246 kts 266°
2026-05-03 20:39 51.64522 0.06869 8133 ft 245 kts 266°
2026-05-03 20:40 51.64451 0.04135 7903 ft 244 kts 266°
2026-05-03 20:40 51.64379 0.01415 7663 ft 243 kts 266°
2026-05-03 20:40 51.64304 -0.01297 7434 ft 242 kts 266°
2026-05-03 20:40 51.64230 -0.04007 7198 ft 242 kts 266°
2026-05-03 20:41 51.64157 -0.06724 6915 ft 243 kts 266°
2026-05-03 20:41 51.63976 -0.09403 6622 ft 240 kts 250°
2026-05-03 20:41 51.63093 -0.11603 6330 ft 235 kts 218°
2026-05-03 20:41 51.61634 -0.12683 6022 ft 233 kts 186°
2026-05-03 20:42 51.60055 -0.12321 5734 ft 233 kts 153°
2026-05-03 20:42 51.58846 -0.10635 5475 ft 234 kts 121°
2026-05-03 20:42 51.58284 -0.08182 5220 ft 235 kts 104°
2026-05-03 20:42 51.57950 -0.05615 5049 ft 235 kts 101°
2026-05-03 20:43 51.57649 -0.03064 4965 ft 236 kts 101°
2026-05-03 20:43 51.57205 -0.00494 4885 ft 235 kts 121°
2026-05-03 20:43 51.56088 0.01357 4798 ft 233 kts 153°
2026-05-03 20:43 51.54561 0.01945 4726 ft 231 kts 185°
2026-05-03 20:44 51.53000 0.01352 4648 ft 231 kts 199°
2026-05-03 20:44 51.51533 0.00309 4566 ft 231 kts 218°
2026-05-03 20:44 51.50323 -0.01403 4491 ft 232 kts 222°
2026-05-03 20:44 51.49216 -0.03291 4407 ft 233 kts 230°
2026-05-03 20:45 51.48265 -0.05380 4365 ft 232 kts 243°
2026-05-03 20:45 51.47818 -0.07861 4325 ft 234 kts 265°
2026-05-03 20:45 51.47791 -0.10469 4088 ft 233 kts 270°
2026-05-03 20:45 51.47804 -0.13069 3790 ft 233 kts 270°
2026-05-03 20:46 51.47808 -0.15663 3482 ft 232 kts 270°
2026-05-03 20:46 51.47807 -0.18253 3176 ft 231 kts 270°
2026-05-03 20:46 51.47805 -0.20831 2865 ft 231 kts 270°
2026-05-03 20:46 51.47803 -0.23405 2555 ft 230 kts 270°
2026-05-03 20:47 51.47800 -0.25884 2244 ft 212 kts 270°
2026-05-03 20:47 51.47797 -0.28165 1971 ft 198 kts 270°
2026-05-03 20:47 51.47794 -0.30340 1741 ft 187 kts 270°
2026-05-03 20:47 51.47790 -0.32331 1465 ft 170 kts 270°
2026-05-03 20:48 51.47787 -0.34138 1246 ft 156 kts 269°
2026-05-03 20:48 51.47784 -0.35818 1041 ft 147 kts 269°
2026-05-03 20:48 51.47781 -0.37440 835 ft 144 kts 269°
2026-05-03 20:48 51.47792 -0.39038 556 ft 142 kts 269°
2026-05-03 20:49 51.47772 -0.40616 412 ft 142 kts 268°
2026-05-03 20:49 51.47771 -0.42201 248 ft 142 kts 269°
2026-05-03 20:49 51.47764 -0.43780 89 ft 140 kts 269°
2026-05-03 20:49 51.47763 -0.45030 89 ft 72 kts 270°
2026-05-03 20:50 51.47743 -0.45429 87 ft 20 kts 233°
2026-05-03 20:50 51.47625 -0.45472 86 ft 13 kts 198°
2026-05-03 20:50 51.47596 -0.45604 88 ft 13 kts 272°
2026-05-03 20:50 51.47596 -0.45768 90 ft 16 kts 270°
2026-05-03 20:51 51.47595 -0.45961 87 ft 19 kts 269°
2026-05-03 20:51 51.47594 -0.46181 90 ft 21 kts 270°
2026-05-03 20:51 51.47593 -0.46427 86 ft 23 kts 269°
2026-05-03 20:51 51.47593 -0.46689 86 ft 24 kts 269°
2026-05-03 20:52 51.47584 -0.46944 89 ft 21 kts 268°
2026-05-03 20:52 51.47583 -0.47180 89 ft 21 kts 271°
2026-05-03 20:52 51.47561 -0.47346 88 ft 13 kts 216°
2026-05-03 20:52 51.47473 -0.47355 87 ft 13 kts 180°
2026-05-03 20:53 51.47398 -0.47383 88 ft 10 kts 246°
2026-05-03 20:53 51.47397 -0.47488 88 ft 8 kts 269°
2026-05-03 20:53 51.47397 -0.47512 88 ft 1 kts 270°
2026-05-03 20:53 51.47397 -0.47513 88 ft 0 kts 270°